Vertical_Velocity
-2 1 0 -1 -2 -2 1 2 1 -0 -2 -0 -1 3 -1 13 10 5 -5 1 15 7 -9 -0 5 3 19 3 -1 -0 0 0 2 0 1 1 0 -0 -2 -1 -3 7 5 -2 2 2 -9 3 -2 3 3 -4 -2 0
-1 -0 -1 1 -0 -2 -2 1 -0 -2 -1 -1 3 1 -1 5 5 10 -6 0 14 3 -10 5 -1 -3 -5 3 3 -4 3 6 -1 -2 1 1 -1 1 -0 -2 -2 -3 -2 -2 1 -6 5 2 -7 7 5 1 11 -2
-1 -0 0 -1 1 -0 -0 2 -1 -1 1 2 0 -1 3 4 1 7 -2 -3 48 3 -5 2 7 -0 4 12 9 2 -3 7 -1 8 0 -4 1 4 1 -2 6 -6 5 7 25 -8 -2 1 3 -3 5 -1 2 -1
-0 2 2 -1 -1 -2 1 1 1 4 2 0 0 -0 -1 1 3 9 -2 -0 34 -2 -10 -6 0 3 6 6 1 -2 1 1 1 2 6 4 12 13 -10 2 2 7 12 -1 -2 9 3 6 5 3 1 2 1 1
1 1 2 -4 -3 -0 -0 -3 -0 4 -0 2 2 1 -0 1 4 3 -3 8 8 -4 -7 -2 7 1 -1 4 2 1 0 2 2 4 5 -3 1 12 -1 3 -3 5 0 5 0 1 0 1 -1 -1 -1 1 2 1
-0 1 -0 -2 -2 0 -0 -1 -1 3 5 -2 0 -2 -3 4 3 1 -8 15 1 1 7 0 -7 -13 3 2 2 2 1 -1 4 3 1 0 3 8 1 -5 1 0 2 0 -4 1 -1 -0 2 -0 -0 -0 -1 -1
-1 -1 -0 0 0 -0 0 1 -1 2 10 -0 -0 -2 0 3 3 2 -2 -1 -1 2 5 -2 -10 -2 3 3 3 1 -0 1 4 3 -0 4 8 8 -3 -5 4 1 -0 -2 -1 -0 1 -1 -1 -1 -1 -1 -1 -0
1 0 1 1 -1 -3 -1 1 -2 3 15 -1 1 2 2 6 1 -8 19 -2 3 9 3 -1 -7 -0 3 1 -0 0 -0 1 -1 2 -1 -0 -0 -0 -4 -0 1 1 -0 -1 -0 -0 -1 -1 -1 -1 -0 -0 -0 -1
0 -1 -0 1 2 -0 1 0 -1 -3 37 -4 0 -2 -1 -2 -4 -2 -1 12 10 3 -0 -4 -0 -0 2 2 2 -2 -1 -1 0 -1 -0 -1 1 -2 1 -0 -0 -0 -0 0 0 -0 -1 -1 -1 -1 -1 -1 -1 -1
0 2 2 3 2 2 3 3 0 -0 29 1 -1 -1 -4 -2 -2 0 2 -0 3 0 2 -4 3 -2 3 5 -4 1 1 -1 -1 -1 0 -0 -2 2 0 0 1 1 1 1 -1 -1 -1 -1 -1 -0 -0 -0 -0 -0
1 3 4 1 1 1 6 9 2 0 16 1 -2 -0 -1 -2 1 -1 -0 -1 0 -1 -1 1 2 -0 1 1 3 2 -0 0 -0 -0 -0 -0 1 1 0 1 0 -0 0 -1 -1 -1 0 -0 -1 -1 -0 0 -0 -0
2 3 4 2 2 3 9 13 4 -0 5 6 -0 1 -1 -2 1 2 -1 -1 -1 0 1 1 1 1 0 1 1 1 -0 -0 0 1 -0 1 1 1 1 1 1 -0 -0 -1 -1 -0 0 0 0 -0 -0 -1 -1 -1
5 6 3 7 3 1 25 8 -2 7 10 5 -1 -3 -4 -1 -1 -2 -1 -0 0 2 2 0 0 3 -1 1 1 0 -0 -0 0 -1 -0 1 1 1 0 -1 -0 1 0 1 0 -0 1 0 -0 -0 -1 -1 -1 -1
-0 2 3 1 2 4 20 1 -4 15 7 1 -2 -4 -1 -1 -2 1 1 0 1 1 1 0 1 1 -0 -0 0 -0 -1 -0 -1 -1 1 1 1 1 0 0 -0 -0 1 1 1 1 1 0 -0 -1 -0 -1 -1 -1
-7 -2 -2 0 -2 31 4 -4 -0 6 -1 1 -3 -1 -1 -1 -0 0 -0 -1 -1 0 -0 -1 -0 2 0 0 -0 0 -0 -1 -2 -0 0 0 1 0 0 -0 0 1 1 0 1 0 -0 -0 -0 -0 -1 -1 -0 -0
-5 -3 -4 2 7 2 -4 -4 6 -2 3 1 -1 -1 -1 0 -0 -1 -2 -1 -1 1 -0 1 0 1 -0 -0 -1 -0 -1 -1 -1 1 1 -0 -0 -0 0 0 0 2 2 0 1 1 0 0 -0 -0 -0 -0 -0 -0
-2 -13 -5 -0 -5 -3 0 6 -2 4 -0 -1 -1 -1 -2 1 0 1 -1 -0 -1 1 1 1 0 -1 -0 -1 -2 -2 -1 0 3 2 0 0 0 -0 -1 0 -0 0 2 2 1 1 1 0 -0 -0 -0 -0 -0 0
-9 -7 -5 -4 -3 -5 4 -0 0 -0 -0 -3 -1 -1 -2 -1 0 1 0 1 1 1 1 0 1 -2 -2 -0 -1 1 1 0 0 1 2 -0 -1 -0 -1 1 -0 0 1 1 2 1 1 0 0 0 0 -0 0 0
-7 -4 -3 -2 -1 5 0 2 1 -2 -2 -1 -2 -4 -2 -0 1 1 1 -0 0 0 2 -1 -2 -1 1 1 1 0 -1 -2 -1 2 3 -0 -1 1 0 -0 -0 1 1 2 1 -0 1 -0 1 1 1 -0 -0 0
-4 -2 -2 -1 3 1 -1 -3 -2 -3 -4 -4 -1 -1 -1 1 1 1 1 1 1 -1 -0 -4 3 3 1 0 0 1 1 -0 -2 -2 3 2 -3 -0 -0 -1 -1 0 1 1 1 2 0 0 1 1 0 0 0 -0
-3 -2 -1 2 2 3 -1 -1 -2 -3 -2 -2 -0 0 -1 1 2 1 0 2 -1 -1 2 3 3 -0 1 2 1 2 1 -1 1 -2 -4 -0 1 0 0 -0 -0 0 2 3 1 -0 1 1 1 0 1 0 -0 -1
-3 0 -2 -4 -2 -1 -3 -0 -0 -1 -1 -1 1 2 -1 -1 1 2 -0 0 -0 2 -1 0 2 2 2 1 1 -0 -1 0 2 0 0 -3 -1 2 0 -0 1 0 -1 -1 -0 1 1 1 0 1 0 0 -1 -1
-3 -1 -1 -2 -1 -2 -2 0 -1 -0 -1 -4 -2 -1 -1 -1 -1 0 -1 -0 0 1 0 0 1 1 1 1 0 -1 -1 -0 1 -0 -1 -0 -0 -0 -0 -0 0 -1 2 2 0 1 1 1 1 0 0 -0 -0 -0
0 -1 -2 -1 -0 -1 -1 -2 -0 1 -1 1 -1 -1 -2 -1 0 -0 -0 1 1 -0 -0 -0 -0 1 0 -3 -4 -1 -1 1 1 0 1 0 -1 0 0 1 1 2 0 1 3 0 1 1 1 1 1 0 0 0
-0 -2 -1 -0 -1 -2 -1 -1 1 0 -0 -0 -2 -1 -1 -0 -1 -0 0 0 -1 -1 -0 0 0 -3 -4 1 0 -0 -1 1 1 1 -0 -0 0 0 1 1 1 1 1 1 0 1 2 2 1 1 1 1 1 -0
-2 0 -1 -1 -0 -2 -1 -1 -0 -1 -1 -1 -1 -1 -1 -0 -0 -0 -0 -0 -0 -0 -0 -0 0 6 4 -2 1 0 -1 -0 -0 -0 0 1 1 -0 1 1 0 1 1 2 3 2 1 1 1 1 1 0 1 0
-2 -1 -2 1 1 2 -1 -1 1 0 0 -1 -0 -0 -1 -1 0 -0 0 0 0 -0 -1 0 -1 -1 -0 1 -1 -1 -0 0 -0 0 0 0 0 -0 -1 -1 0 0 -0 1 1 0 0 1 1 1 1 1 1 0
-1 -3 0 2 0 1 -2 -1 -1 -2 -1 0 0 0 -2 -2 -3 -0 -1 -1 0 -0 -1 1 2 1 0 -1 -1 -1 -1 0 0 0 1 0 0 1 1 1 0 1 1 0 1 0 1 1 1 1 1 1 0 -1
-1 1 2 1 1 0 -1 -1 -1 -0 1 2 1 2 -2 0 0 -0 -0 -1 -1 -1 0 -1 -2 -2 -1 -0 -1 -1 -1 -0 -1 -0 1 1 -0 -0 1 1 -1 -2 -2 -0 -1 -1 2 1 1 0 0 -0 -0 -0
-2 2 0 1 0 -0 -1 2 0 0 1 1 1 -0 0 1 2 1 -0 -0 -0 -0 0 -0 -1 -0 -0 -1 -1 -1 -0 0 -0 0 1 1 0 0 0 0 0 0 -0 1 1 1 1 1 1 0 1 0 -0 -0
-0 1 -0 1 -1 2 2 1 0 -0 0 0 0 -1 -0 -2 1 -0 -1 -1 -1 -2 -2 -0 1 1 0 -1 -2 -2 -2 -1 -0 0 0 1 1 1 2 2 2 2 2 2 2 1 1 1 1 1 0 -0 -1 -0
0 -0 0 -1 0 1 -0 -1 -1 -1 -0 -0 -0 1 -0 -1 -1 -1 -1 -0 0 2 1 1 -0 0 -0 -1 -1 -0 -0 0 1 1 1 1 1 2 2 3 2 2 1 2 2 2 2 1 1 0 0 -0 -0 -0
-1 0 1 -0 -0 -1 -0 -0 -1 -3 -1 -0 -0 -1 -0 -0 0 1 0 0 0 -0 1 1 1 0 -0 0 1 1 1 0 0 -0 -0 -0 0 1 1 1 1 2 2 2 2 2 1 1 1 1 -0 -0 -1 -1
Height
3056 3051 3045 3038 3032 3026 3020 3014 3009 3004 2998 2994 2991 2990 2989 2987 2985 2982 2976 2977 2974 2968 2965 2963 2963 2963 2962 2961 2961 2961 2961 2956 2955 2954 2953 2952 2949 2949 2947 2946 2946 2946 2944 2941 2939 2937 2933 2930 2930 2930 2928 2924 2923 2922
3044 3038 3031 3025 3018 3012 3006 3001 2996 2993 2988 2983 2980 2977 2976 2975 2974 2972 2966 2967 2966 2962 2958 2957 2955 2957 2956 2956 2955 2953 2954 2953 2953 2952 2952 2949 2947 2944 2942 2938 2939 2939 2938 2936 2935 2929 2926 2924 2923 2920 2918 2918 2916 2915
3030 3023 3016 3011 3005 3000 2995 2990 2985 2981 2977 2973 2970 2967 2966 2965 2963 2962 2958 2958 2956 2954 2953 2950 2949 2949 2949 2949 2949 2948 2946 2948 2947 2948 2947 2944 2940 2937 2935 2931 2931 2930 2930 2926 2925 2922 2919 2918 2915 2913 2912 2911 2910 2909
3016 3009 3003 2997 2992 2987 2982 2978 2975 2972 2968 2965 2962 2959 2957 2956 2954 2952 2950 2952 2951 2951 2947 2944 2945 2944 2943 2941 2940 2938 2940 2940 2941 2942 2940 2938 2936 2932 2927 2927 2924 2924 2922 2919 2916 2914 2912 2910 2908 2907 2906 2905 2905 2904
3003 2996 2990 2984 2979 2975 2971 2969 2967 2965 2961 2958 2955 2953 2950 2948 2946 2945 2945 2945 2947 2949 2943 2939 2939 2938 2935 2933 2933 2933 2934 2935 2935 2934 2932 2929 2928 2926 2922 2918 2913 2914 2912 2912 2910 2909 2907 2905 2902 2900 2899 2898 2899 2900
2989 2984 2978 2973 2969 2966 2963 2960 2958 2956 2954 2952 2949 2946 2944 2942 2941 2941 2941 2941 2943 2942 2939 2935 2932 2930 2929 2927 2927 2928 2928 2929 2930 2928 2926 2923 2921 2922 2917 2910 2908 2907 2906 2905 2904 2903 2902 2899 2897 2894 2893 2892 2893 2894
2978 2973 2968 2963 2959 2956 2953 2951 2949 2948 2948 2946 2943 2941 2940 2938 2937 2938 2940 2940 2939 2938 2936 2931 2928 2926 2926 2926 2926 2925 2925 2925 2924 2921 2918 2917 2916 2916 2910 2906 2905 2902 2900 2900 2900 2900 2899 2897 2895 2894 2893 2892 2893 2893
2967 2962 2958 2954 2950 2946 2945 2943 2942 2941 2941 2940 2938 2937 2936 2934 2934 2935 2935 2934 2934 2933 2931 2928 2926 2925 2924 2923 2922 2921 2920 2918 2915 2914 2912 2911 2911 2910 2906 2904 2902 2899 2897 2898 2898 2898 2897 2896 2895 2894 2893 2893 2893 2893
2956 2951 2946 2942 2939 2937 2936 2935 2934 2935 2934 2934 2933 2933 2932 2932 2932 2933 2932 2932 2929 2931 2926 2924 2923 2923 2921 2920 2919 2917 2914 2912 2911 2909 2909 2909 2907 2905 2904 2903 2901 2900 2899 2898 2897 2897 2897 2896 2896 2895 2895 2895 2895 2894
2942 2936 2932 2929 2927 2927 2927 2927 2927 2928 2928 2928 2929 2930 2929 2930 2930 2929 2928 2926 2924 2922 2921 2919 2920 2920 2921 2918 2915 2915 2911 2909 2908 2908 2907 2905 2903 2904 2902 2901 2900 2899 2899 2898 2898 2898 2898 2897 2897 2897 2897 2896 2895 2895
2924 2920 2918 2916 2915 2916 2917 2919 2920 2921 2921 2923 2924 2926 2927 2928 2928 2926 2924 2923 2921 2920 2918 2917 2916 2917 2918 2916 2914 2913 2909 2908 2907 2908 2906 2903 2903 2902 2901 2900 2900 2899 2899 2899 2899 2899 2898 2898 2898 2897 2897 2896 2895 2894
2912 2908 2905 2904 2905 2906 2909 2911 2912 2915 2917 2920 2922 2923 2926 2926 2925 2924 2922 2921 2920 2919 2917 2917 2917 2916 2914 2912 2910 2909 2908 2908 2906 2906 2905 2902 2903 2902 2900 2900 2899 2899 2899 2899 2899 2899 2899 2899 2898 2897 2896 2895 2894 2893
2896 2892 2891 2892 2895 2898 2901 2905 2907 2911 2914 2917 2920 2923 2924 2924 2923 2922 2921 2920 2919 2918 2918 2918 2917 2915 2913 2911 2909 2908 2907 2906 2906 2904 2903 2903 2903 2901 2900 2899 2899 2898 2898 2898 2898 2898 2898 2897 2896 2896 2894 2893 2892 2890
2884 2881 2882 2885 2888 2892 2897 2901 2905 2908 2913 2915 2919 2921 2922 2921 2921 2921 2921 2920 2919 2918 2918 2918 2916 2914 2911 2909 2908 2907 2907 2905 2904 2903 2903 2903 2902 2901 2900 2899 2898 2898 2897 2897 2896 2896 2896 2895 2894 2893 2892 2891 2889 2887
2883 2881 2882 2884 2887 2890 2896 2900 2905 2909 2912 2916 2919 2919 2920 2921 2921 2920 2920 2919 2919 2919 2918 2917 2914 2912 2909 2908 2907 2906 2905 2903 2903 2903 2903 2902 2901 2900 2899 2898 2897 2896 2895 2895 2894 2894 2893 2893 2891 2890 2889 2888 2886 2884
2891 2889 2888 2888 2891 2895 2897 2902 2906 2911 2913 2916 2918 2919 2919 2920 2920 2919 2919 2918 2918 2917 2916 2915 2912 2910 2908 2907 2906 2904 2904 2902 2902 2901 2901 2900 2899 2898 2896 2895 2894 2892 2892 2892 2891 2891 2890 2889 2888 2887 2886 2884 2882 2880
2900 2898 2897 2897 2897 2900 2903 2907 2911 2913 2915 2917 2918 2919 2919 2919 2919 2918 2917 2915 2915 2915 2914 2914 2912 2910 2908 2905 2904 2902 2901 2901 2900 2899 2898 2896 2895 2894 2892 2890 2889 2888 2887 2887 2887 2887 2886 2886 2885 2884 2882 2881 2879 2876
2908 2905 2904 2905 2906 2907 2910 2912 2914 2915 2916 2917 2918 2919 2918 2917 2916 2915 2913 2911 2911 2910 2911 2911 2910 2907 2906 2903 2901 2901 2899 2897 2896 2895 2893 2891 2889 2887 2885 2884 2883 2882 2881 2881 2882 2882 2882 2882 2881 2880 2879 2877 2875 2872
2913 2912 2911 2911 2912 2914 2914 2916 2917 2917 2917 2918 2918 2917 2916 2915 2913 2912 2910 2908 2907 2907 2907 2906 2905 2901 2901 2900 2898 2896 2893 2891 2889 2888 2885 2882 2879 2877 2876 2876 2875 2875 2875 2876 2877 2877 2878 2878 2877 2876 2875 2873 2871 2869
2920 2918 2917 2916 2916 2917 2918 2918 2918 2918 2917 2917 2916 2915 2913 2912 2911 2909 2907 2906 2905 2903 2902 2900 2900 2898 2896 2894 2891 2889 2887 2884 2881 2878 2877 2874 2869 2868 2867 2867 2868 2868 2869 2870 2872 2873 2874 2874 2874 2873 2871 2870 2867 2865
2923 2922 2920 2919 2919 2920 2920 2919 2918 2918 2916 2915 2913 2912 2911 2909 2907 2905 2903 2902 2900 2898 2896 2895 2893 2891 2888 2887 2884 2882 2880 2878 2875 2871 2867 2864 2862 2860 2859 2860 2861 2862 2864 2866 2868 2869 2870 2870 2870 2869 2868 2866 2864 2862
2925 2923 2922 2922 2921 2920 2919 2918 2917 2916 2915 2912 2911 2909 2906 2904 2902 2900 2898 2896 2894 2893 2891 2890 2887 2885 2883 2881 2879 2877 2874 2871 2868 2864 2860 2856 2852 2851 2851 2853 2856 2858 2860 2862 2864 2865 2866 2867 2866 2865 2864 2862 2860 2858
2926 2925 2923 2922 2921 2919 2919 2916 2915 2913 2912 2909 2907 2905 2902 2900 2898 2897 2895 2893 2892 2890 2887 2885 2883 2881 2879 2877 2875 2871 2867 2864 2860 2856 2853 2849 2847 2846 2847 2850 2852 2854 2857 2859 2861 2862 2863 2863 2862 2861 2860 2858 2856 2854
2926 2925 2923 2921 2919 2917 2916 2914 2912 2910 2908 2906 2904 2901 2899 2896 2895 2892 2891 2890 2889 2887 2885 2883 2880 2878 2875 2872 2868 2864 2860 2856 2852 2849 2846 2845 2844 2845 2846 2848 2850 2853 2855 2857 2859 2859 2859 2859 2859 2858 2856 2855 2852 2850
2926 2924 2921 2917 2916 2914 2913 2911 2909 2908 2906 2904 2901 2899 2897 2895 2892 2890 2888 2888 2887 2885 2882 2879 2876 2872 2869 2866 2862 2858 2854 2851 2847 2845 2843 2842 2843 2844 2845 2847 2849 2852 2853 2855 2855 2856 2856 2855 2855 2854 2852 2850 2848 2846
2921 2918 2916 2913 2913 2912 2911 2909 2907 2905 2903 2901 2899 2897 2894 2892 2889 2888 2888 2887 2885 2882 2879 2876 2873 2870 2866 2861 2858 2854 2850 2847 2845 2843 2843 2843 2843 2844 2846 2848 2850 2851 2852 2852 2853 2852 2852 2852 2851 2849 2848 2846 2844 2842
2914 2912 2911 2910 2909 2909 2907 2906 2904 2903 2900 2898 2895 2894 2893 2890 2888 2888 2886 2884 2882 2879 2875 2873 2870 2867 2863 2859 2855 2851 2847 2845 2844 2844 2843 2843 2844 2845 2847 2848 2849 2849 2849 2849 2849 2849 2848 2847 2846 2845 2843 2841 2840 2838
2908 2906 2907 2907 2905 2904 2903 2901 2899 2898 2896 2894 2893 2892 2890 2889 2887 2886 2883 2880 2878 2875 2872 2870 2867 2864 2861 2858 2854 2850 2847 2845 2845 2844 2844 2845 2845 2846 2847 2847 2848 2847 2846 2845 2845 2845 2844 2843 2842 2840 2839 2837 2835 2833
2902 2902 2902 2901 2900 2898 2897 2896 2895 2893 2892 2890 2889 2887 2885 2884 2882 2880 2878 2875 2873 2871 2868 2866 2864 2861 2859 2856 2853 2850 2847 2846 2846 2845 2846 2846 2846 2847 2846 2846 2845 2844 2843 2842 2841 2840 2839 2838 2837 2836 2834 2833 2831 2828
2897 2897 2895 2894 2894 2893 2892 2891 2889 2887 2886 2885 2883 2881 2880 2878 2876 2874 2872 2869 2868 2866 2865 2863 2861 2859 2857 2854 2852 2850 2848 2847 2846 2846 2846 2845 2845 2845 2844 2843 2842 2841 2839 2837 2836 2835 2835 2833 2832 2831 2829 2828 2826 2824
2892 2891 2890 2889 2887 2887 2885 2883 2882 2880 2879 2878 2876 2875 2873 2872 2870 2868 2866 2865 2863 2862 2861 2860 2858 2857 2855 2853 2851 2849 2847 2846 2845 2844 2843 2842 2841 2840 2839 2838 2837 2835 2834 2832 2831 2830 2830 2828 2827 2826 2824 2822 2821 2819
2886 2885 2884 2882 2881 2880 2878 2877 2875 2874 2873 2871 2870 2869 2868 2866 2865 2864 2863 2862 2861 2860 2859 2857 2856 2854 2853 2851 2849 2847 2845 2844 2842 2841 2839 2838 2836 2835 2833 2832 2831 2829 2828 2827 2826 2825 2824 2823 2822 2820 2819 2817 2815 2814
2880 2879 2878 2877 2876 2875 2874 2873 2871 2869 2868 2866 2865 2864 2863 2863 2862 2862 2861 2860 2859 2858 2857 2856 2854 2853 2851 2849 2847 2845 2843 2841 2839 2837 2836 2834 2832 2831 2829 2827 2826 2825 2824 2822 2821 2820 2819 2818 2816 2815 2814 2812 2810 2808